STARLINK-11475, 62226

Orbit data source: Space-Track

STARLINK-11475, 62226 is a payload satellite owned by SpaceX/Seattle (US) in LEO that was launched on Thu, 05 Dec 2024 UTC via an FALCON 9 launch vehicle from the Air Force Western Test Range (AFWTR). Payload-class satellites include a variety of spacecraft equipped with specific instruments for various scientific and technological missions. These include communications satellites like Starlink; space stations such as the ISS; scientific satellites like the Hubble; Earth observation satellites from companies like Planet Labs, Umbra, and HawkEye 360; GPS; miniature CubeSats for education and research; and military/defense satellites.

Loading next visibility...
Identifier
62226, 2024-231J
Orbit
LEO
Last TLE update
1 day ago
Origin
Manufacturer
SpaceX/Seattle
Mission
Operational Commercial Communications
Bus & Motor
STARLINK V2M, Unknown motor
Mass
730 kg wet, ~700 kg dry
Launch date (UTC)
2024-12-05 (7 months ago)
Launch vehicle
FALCON 9
Launch site
Air Force Western Test Range (AFWTR)
Object type
Payload
Rocket body
Debris
Shape & HBR
Box + 2 Pan, 29 m
Radar Cross Section
36.964 m², Large (>1 m²)

Expand to show TLE details & history

TLE from 1 day ago
0 STARLINK-11475
1 62226U 24231J   25191.36413092  .00148492  00000-0  12068-2 0  9993
2 62226  53.1568 215.6854 0001109  62.6215 297.4916 15.69748109 35356
Epoch: 2025-07-10T08:44Z
TLE epoch observation values (Epoch: 2025-07-10T08:44:20.911Z)
Latitude
0.00001°
Longitude
156.0668°
Altitude
360.188 km
Speed
7.695 km/s
True Right ascension
14h 22m 44s
True Declination
0° 00' 00"
Sunlit
Object was in daylight at epoch
Visualization orbit readout
Latitude
11.74604°
Longitude
-38.32797°
Altitude
358.959 km
Speed
7.696 km/s
Apparent Right ascension
04h 21m 46s
Apparent Declination
-41° 43' 48"
Sunlit
Object is in daylight
Visualization observer readout
Local Sidereal Time
23:42:51
Azimuth
134.015° SE
Elevation
-13.228°
Doppler factor
1
Orbital elements
Apogee altitude
360.626 km
Perigee altitude
359.132 km
Semi-major axis
6,738.016 km
Eccentricity
0.00011
Inclination
53.1568°
RAAN
215.6854°
Arg. of periapsis
62.6215°
True anomaly
Unknown
Mean anomaly
297.4916°
Eccentric anomaly
Unknown
Mean motion
3.92415 °/min
Orbital period
91.74 mins
BSTAR
0.0012068
Loading maneuver chart data...
Loading SW <> Apogee altitude chart data...
Loading historical data...
Loading historical data...
Loading historical data...
Loading historical data...
Loading historical data...
Loading historical data...
Loading historical data...

STARLINK-11475 Visibility forecast

Observer location: undefined°, undefined°

Span
Click to sort rows by Start time (UTC) header in descending order
Start Az.
Max El. time (UTC)
Max El. Az.
Max El.
End time (UTC)
End Az.
4 mins2025-07-12 03:41:49.120Z210.872° SW2025-07-12 03:43:49.120Z142.944° SSE38.912°2025-07-12 03:45:49.120Z63.382° ENE
4 mins2025-07-12 10:06:49.120Z338.787° N2025-07-12 10:08:49.120Z55.731° ENE28.389°2025-07-12 10:10:49.120Z100.36° ESE
|